Weather History for Asheville, NC

Change the Weather History Date:

Friday, August 31, 2012

  Actual Average Record
Temperature  
Mean Temperature 78 °F 71 °F  
Max Temperature 88 °F 81 °F 93 °F (1953)
Min Temperature 67 °F 61 °F 45 °F (1946)
Degree Days  
Heating Degree Days 0 0  
Month to date heating degree days 0 0  
Since 1 June heating degree days 9 16  
Since 1 July heating degree days 0 2  
Cooling Degree Days 13 6  
Month to date cooling degree days 232 247  
Year to date cooling degree days 916 757  
Since 1 June cooling degree days 792 699  
Growing Degree Days 28 (Base 50)    
Moisture  
Dew Point 67 °F    
Average Humidity 76    
Maximum Humidity 100    
Minimum Humidity 51    
Precipitation  
Precipitation 0.00 in 0.14 in 3.51 in (1910)
Month to date precipitation 3.39 4.40  
Year to date precipitation 29.49 31.61  
Snow  
Snow 0.00 in 0.00 in 0.00 in ()
Month to date snowfall 0.0 0.0  
Since 1 June snowfall 0.0 0.0  
Since 1 July snowfall 0.0 0.0  
Snow Depth 0.00 in    
Sea Level Pressure  
Sea Level Pressure 30.22 in    
Wind  
Wind Speed 3 mph (SSW)    
Max Wind Speed 10 mph    
Max Gust Speed 21 mph    
Visibility 7 miles    
Events Fog    
T = Trace of Precipitation, MM = Missing Value Source: NWS Daily Summary

Daily Weather History Graph

Daily Weather History Graph

Search for Another Location

Airport:

Trip Planner

Search our weather history database for the weather conditions in past years. The results will help you decide how hot, cold, wet, or windy it might be!

Date:

Astronomy

Aug. 31, 2012 Rise Set
Actual Time 7:02 AM EDT 7:57 PM EDT
Civil Twilight 6:36 AM EDT 8:23 PM EDT
Nautical Twilight 6:05 AM EDT 8:54 PM EDT
Astronomical Twilight 5:33 AM EDT 9:26 PM EDT
Moon 7:47 PM EDT (8/31) 7:03 AM EDT (8/31)
Length of Visible Light 13h 47m
Length of Day
12h 55m
Full, 100% of the Moon is Illuminated
Aug 31
Full
Sep 8
Last Quarter
Sep 15
New
Sep 22
First Quarter
Sep 29
Full

Hourly Weather History & Observations

Time (EDT) Temp. Heat Index Dew Point Humidity Pressure Visibility Wind Dir Wind Speed Gust Speed Precip Events Conditions
12:46 AM 69.8 °F - 68.0 °F 94% 30.25 in 10.0 mi Calm Calm - N/A   Partly Cloudy
12:54 AM 71.1 °F - 68.0 °F 90% 30.17 in 10.0 mi Calm Calm - N/A   Scattered Clouds
1:35 AM 71.6 °F - 68.0 °F 88% 30.26 in 10.0 mi Calm Calm - N/A   Mostly Cloudy
1:47 AM 69.8 °F - 68.0 °F 94% 30.26 in 10.0 mi Calm Calm - N/A   Scattered Clouds
1:54 AM 70.0 °F - 66.9 °F 90% 30.18 in 10.0 mi Calm Calm - N/A   Partly Cloudy
2:46 AM 68.0 °F - 66.2 °F 94% 30.26 in 9.0 mi Calm Calm - N/A   Mostly Cloudy
2:54 AM 69.1 °F - 66.9 °F 93% 30.17 in 9.0 mi Calm Calm - N/A   Mostly Cloudy
3:06 AM 69.8 °F - 66.2 °F 88% 30.25 in 1.8 mi Calm Calm - N/A   Overcast
3:15 AM 69.8 °F - 66.2 °F 88% 30.25 in 4.0 mi Calm Calm - N/A   Overcast
3:23 AM 69.8 °F - 68.0 °F 94% 30.25 in 1.8 mi Calm Calm - N/A   Overcast
3:32 AM 69.8 °F - 68.0 °F 94% 30.25 in 3.0 mi Calm Calm - N/A   Overcast
3:54 AM 68.0 °F - 66.9 °F 96% 30.17 in 2.0 mi Calm Calm - N/A   Overcast
4:05 AM 68.0 °F - 66.2 °F 94% 30.25 in 1.2 mi Calm Calm - N/A   Overcast
4:14 AM 68.0 °F - 66.2 °F 94% 30.26 in 0.5 mi Calm Calm - N/A Fog Fog
4:22 AM 68.0 °F - 66.2 °F 94% 30.26 in 0.2 mi Calm Calm - N/A Fog Fog
4:27 AM 68.0 °F - 66.2 °F 94% 30.26 in 0.5 mi Calm Calm - N/A Fog Fog
4:44 AM 68.0 °F - 66.2 °F 94% 30.26 in 1.0 mi Calm Calm - N/A   Overcast
4:51 AM 68.0 °F - 66.2 °F 94% 30.26 in 2.0 mi Calm Calm - N/A   Overcast
4:54 AM 68.0 °F - 68.0 °F 100% 30.18 in 4.0 mi Calm Calm - N/A   Overcast
5:54 AM 69.1 °F - 68.0 °F 96% 30.19 in 8.0 mi Calm Calm - N/A   Overcast
6:29 AM 68.0 °F - 66.2 °F 94% 30.28 in 2.0 mi Calm Calm - N/A   Overcast
6:54 AM 69.1 °F - 66.9 °F 93% 30.21 in 2.0 mi Calm Calm - N/A   Overcast
7:54 AM 69.1 °F - 66.9 °F 93% 30.23 in 2.0 mi Calm Calm - N/A   Overcast
8:54 AM 70.0 °F - 68.0 °F 93% 30.25 in 2.0 mi SSW 3.5 mph - N/A   Overcast
9:19 AM 71.6 °F - 66.2 °F 83% 30.32 in 2.0 mi Calm Calm - N/A   Overcast
9:54 AM 73.0 °F - 66.9 °F 81% 30.26 in 4.0 mi Calm Calm - N/A   Haze
10:04 AM 75.2 °F - 66.2 °F 73% 30.33 in 10.0 mi Calm Calm - N/A   Scattered Clouds
10:54 AM 78.1 °F - 68.0 °F 71% 30.25 in 10.0 mi Calm Calm - N/A   Clear
11:54 AM 82.0 °F 84.9 °F 68.0 °F 62% 30.23 in 10.0 mi NW 5.8 mph - N/A   Clear
12:54 PM 84.0 °F 85.8 °F 64.9 °F 53% 30.22 in 10.0 mi Variable 4.6 mph - N/A   Mostly Cloudy
1:54 PM 84.9 °F 86.1 °F 64.0 °F 49% 30.20 in 10.0 mi NE 4.6 mph - N/A   Scattered Clouds
2:54 PM 86.0 °F 88.2 °F 66.0 °F 51% 30.18 in 10.0 mi South 6.9 mph - N/A   Clear
3:54 PM 82.9 °F 85.8 °F 68.0 °F 60% 30.17 in 10.0 mi SW 6.9 mph - N/A   Clear
4:54 PM 82.9 °F 84.6 °F 64.9 °F 54% 30.16 in 10.0 mi SSW 6.9 mph - N/A   Clear
5:54 PM 82.9 °F 85.0 °F 66.0 °F 56% 30.14 in 10.0 mi SW 8.1 mph 20.7 mph N/A   Partly Cloudy
6:54 PM 80.1 °F 82.7 °F 68.0 °F 67% 30.14 in 10.0 mi South 3.5 mph - N/A   Partly Cloudy
7:54 PM 77.0 °F - 69.1 °F 76% 30.15 in 10.0 mi SE 4.6 mph - N/A   Clear
8:54 PM 75.0 °F - 70.0 °F 84% 30.17 in 10.0 mi South 4.6 mph - N/A   Clear
9:54 PM 75.0 °F - 69.1 °F 82% 30.18 in 10.0 mi Calm Calm - N/A   Clear
10:54 PM 73.0 °F - 69.1 °F 87% 30.18 in 10.0 mi Calm Calm - N/A   Clear
11:54 PM 72.0 °F - 69.1 °F 91% 30.17 in 10.0 mi Calm Calm - N/A   Clear